OBJECT_NAME,OBJECT_ID,EPOCH,MEAN_MOTION,ECCENTRICITY,INCLINATION,RA_OF_ASC_NODE,ARG_OF_PERICENTER,MEAN_ANOMALY,EPHEMERIS_TYPE,CLASSIFICATION_TYPE,NORAD_CAT_ID,ELEMENT_SET_NO,REV_AT_EPOCH,BSTAR,MEAN_MOTION_DOT,MEAN_MOTION_DDOT DMSP 5D-3 F16 (USA 172),2003-048A,2026-06-18T14:22:17.957280,14.14483197,.00078101,98.9890,193.4365,136.5758,23.7152,0,U,28054,999,16968,.6382383E-5,-.33E-6,0 METEOSAT-9 (MSG-2),2005-049B,2026-06-17T20:09:04.483008,1.00272435,.00016603,9.3634,54.1628,344.5140,215.3198,0,U,28912,999,700,0,.114E-5,0 DMSP 5D-3 F17 (USA 191),2006-050A,2026-06-18T14:00:50.882400,14.14993117,.00111274,98.7378,176.1255,55.7492,304.4734,0,U,29522,999,1262,.15304287E-4,-.14E-6,0 FENGYUN 3A,2008-026A,2026-06-18T14:21:04.494816,14.19571403,.00096448,98.6883,110.4048,119.9737,240.2398,0,U,32958,999,93560,.4902108E-4,.6E-6,0 GOES 14,2009-033A,2026-06-18T13:35:33.696672,1.00110477,.00018225,1.6945,83.0259,12.2907,156.4083,0,U,35491,999,660,0,-.303E-5,0 DMSP 5D-3 F18 (USA 210),2009-057A,2026-06-18T13:19:46.058016,14.14897516,.000992,98.9038,150.3215,245.1771,114.8370,0,U,35951,999,85978,.13877952E-3,.223E-5,0 EWS-G2 (GOES 15),2010-008A,2026-06-18T13:13:29.279712,1.00266272,.00048186,1.2823,82.8232,42.0609,43.9667,0,U,36411,999,5965,0,.13E-6,0 COMS 1,2010-032A,2026-06-18T03:32:21.653376,0.99162666,.00115422,4.8083,75.3434,11.9093,301.8413,0,U,36744,999,5109,0,.7E-6,0 FENGYUN 3B,2010-059A,2026-06-18T14:16:40.006272,14.14841529,.00219631,98.9613,215.6159,179.9725,333.7718,0,U,37214,999,80762,.73561153E-4,.97E-6,0 SUOMI NPP,2011-061A,2026-06-18T14:37:22.875456,14.19517636,.0001456,98.7953,110.4756,3.3942,356.7244,0,U,37849,999,75864,.47083762E-4,.55E-6,0 METEOSAT-10 (MSG-3),2012-035B,2026-06-18T07:47:28.502880,1.00266031,.00013964,4.6751,61.0179,0.2073,322.5258,0,U,38552,999,5086,0,-.14E-6,0 METOP-B,2012-049A,2026-06-18T14:20:19.776768,14.21433119,.00021478,98.6504,221.0686,16.0748,344.0497,0,U,38771,999,71346,.60272217E-4,.88E-6,0 INSAT-3D,2013-038B,2026-06-18T15:03:30.235392,1.00268585,.0000585,1.9307,82.5227,320.2154,219.4952,0,U,39216,999,4709,0,-.346E-5,0 FENGYUN 3C,2013-052A,2026-06-18T14:22:01.747776,14.15755348,.00151777,98.4987,143.4086,23.7386,336.4485,0,U,39260,999,65876,.5841242E-4,.73E-6,0 METEOR-M 2,2014-037A,2026-06-18T14:58:15.761856,14.21462120,.00066918,98.5115,145.3115,40.7174,319.4503,0,U,40069,999,61952,.10468681E-3,.187E-5,0 HIMAWARI-8,2014-060A,2026-06-18T13:35:26.209248,1.00271241,.00010677,0.0129,35.3318,56.2324,159.7646,0,U,40267,999,4277,0,-.282E-5,0 FENGYUN 2G,2014-090A,2026-06-18T15:06:28.632384,1.00271470,.00039364,5.6433,72.7978,158.9318,1.4413,0,U,40367,999,4201,0,-.311E-5,0 METEOSAT-11 (MSG-4),2015-034A,2026-06-18T04:24:45.376128,1.00264280,.00024999,3.2036,71.1007,345.8568,285.3054,0,U,40732,999,722,0,.56E-6,0 ELEKTRO-L 2,2015-074A,2026-06-18T00:52:34.633344,1.00270556,.00009025,6.6975,70.5132,256.1704,298.2263,0,U,41105,999,3851,0,-.126E-5,0 SENTINEL-3A,2016-011A,2026-06-18T14:51:34.509024,14.26732839,.0001405,98.6250,236.9826,101.7264,258.4074,0,U,41335,999,53826,.56613673E-4,.93E-6,0 INSAT-3DR,2016-054A,2026-06-18T13:16:25.120128,1.00271048,.0010534,0.1102,86.2273,187.5515,266.0837,0,U,41752,999,3583,0,-.83E-6,0 HIMAWARI-9,2016-064A,2026-06-18T13:21:49.014720,1.00270363,.00009789,0.0148,292.9576,197.3306,117.7181,0,U,41836,999,3522,0,-.281E-5,0 GOES 16,2016-071A,2026-06-18T14:08:08.075040,1.00271152,.0000245,0.3458,85.5049,324.7379,323.9211,0,U,41866,999,3511,0,-.97E-6,0 FENGYUN 4A,2016-077A,2026-06-18T16:07:45.624576,1.00267699,.00086953,2.3269,80.2604,153.4257,38.9002,0,U,41882,999,3494,0,-.364E-5,0 CYGFM05,2016-078A,2026-06-18T12:37:40.080576,15.56722595,.00071019,34.9563,251.7231,164.6539,195.4402,0,U,41884,999,52896,.25572586E-3,.18897E-3,0 CYGFM04,2016-078B,2026-06-18T13:21:23.836032,15.61577331,.00068235,34.9309,219.1431,207.5066,152.5299,0,U,41885,999,52921,.25710046E-3,.22879E-3,0 CYGFM02,2016-078C,2026-06-18T13:18:36.114624,15.64576545,.00078942,34.9390,213.6514,208.8143,151.2149,0,U,41886,999,52938,.2686532E-3,.26934E-3,0 CYGFM01,2016-078D,2026-06-18T13:52:52.845888,15.57403870,.00068572,34.9392,252.4239,158.7047,201.3964,0,U,41887,999,52892,.26212527E-3,.19875E-3,0 CYGFM08,2016-078E,2026-06-18T12:51:05.719104,15.60079570,.00084767,34.9419,232.2513,189.9971,170.0587,0,U,41888,999,52918,.25780648E-3,.2166E-3,0 CYGFM07,2016-078G,2026-06-18T13:24:16.644672,15.60178394,.00072689,34.9432,220.4381,206.5978,153.4375,0,U,41890,999,52921,.25688333E-3,.21654E-3,0 CYGFM03,2016-078H,2026-06-18T12:42:32.186016,15.60171185,.00067101,34.9387,222.5679,194.5255,165.5278,0,U,41891,999,52918,.25706787E-3,.2166E-3,0 FENGYUN 3D,2017-072A,2026-06-18T15:03:21.345696,14.19739733,.00025187,99.0128,144.0761,60.3277,299.8149,0,U,43010,999,44519,.88264038E-4,.141E-5,0 NOAA 20 (JPSS-1),2017-073A,2026-06-18T13:14:55.779936,14.19511933,.00003088,98.7770,109.0025,107.8693,252.2517,0,U,43013,999,44466,.38608673E-4,.37E-6,0 GOES 17,2018-022A,2026-06-18T14:12:30.155616,1.00269560,.00004911,0.9417,85.6823,29.5169,275.2338,0,U,43226,999,3043,0,-.189E-5,0 SENTINEL-3B,2018-039A,2026-06-18T14:12:55.361952,14.26735069,.00007222,98.6249,237.1045,91.3758,268.7505,0,U,43437,999,42432,.49671329E-4,.77E-6,0 FENGYUN 2H,2018-050A,2026-06-18T15:00:36.694944,1.00269447,.00019671,3.0356,79.0525,138.2508,354.1055,0,U,43491,999,2945,0,-.137E-5,0 METOP-C,2018-087A,2026-06-18T14:47:51.626400,14.21512496,.00018141,98.6645,229.1941,127.6744,232.4598,0,U,43689,999,39503,.57450217E-4,.82E-6,0 GEO-KOMPSAT-2A,2018-100A,2026-06-18T15:02:51.689760,1.00269254,.00018491,0.0492,157.8937,289.7421,173.1968,0,U,43823,999,2764,0,-.35E-5,0 METEOR-M2 2,2019-038A,2026-06-18T13:54:15.758784,14.24366772,.00020364,98.9143,156.8857,44.8123,315.3219,0,U,44387,999,36149,.96212934E-4,.177E-5,0 ARKTIKA-M 1,2021-016A,2026-06-17T11:46:36.471360,2.00622504,.72885287,63.2922,57.5948,269.9420,14.6012,0,U,47719,999,3879,0,-.21E-5,0 FENGYUN 3E,2021-062A,2026-06-18T14:39:53.428320,14.19904260,.00028392,98.7488,173.0033,82.9785,277.1714,0,U,49008,999,25678,-.29051932E-4,-.106E-5,0 GOES 18,2022-021A,2026-06-18T13:58:53.959872,1.00271167,.00003373,0.0077,73.6037,71.6585,194.2700,0,U,51850,999,660,0,.9E-6,0 NOAA 21 (JPSS-2),2022-150A,2026-06-18T14:02:14.172864,14.19565657,.00017502,98.7058,108.3507,150.7122,209.4152,0,U,54234,999,18674,.41813502E-4,.45E-6,0 METEOSAT-12 (MTG-I1),2022-170C,2026-06-18T07:47:13.527168,1.00272916,.00032147,0.7400,23.2065,71.0428,288.7161,0,U,54743,999,1298,0,-.14E-6,0 TIANMU-1 03,2023-039A,2026-06-18T14:27:16.914240,15.47317914,.00041648,97.5236,343.6262,95.6152,264.5573,0,U,55973,999,18105,.23237175E-3,.11771E-3,0 TIANMU-1 04,2023-039B,2026-06-18T15:44:25.852128,15.47917921,.00048437,97.5171,342.8358,91.9365,268.2440,0,U,55974,999,18107,.23854549E-3,.12343E-3,0 TIANMU-1 05,2023-039C,2026-06-18T13:59:40.704000,15.47243904,.00040317,97.5219,343.2207,111.8397,248.3282,0,U,55975,999,18103,.22820857E-3,.11528E-3,0 TIANMU-1 06,2023-039D,2026-06-18T14:16:19.940736,15.47820110,.00043837,97.5224,343.8700,107.1202,253.0528,0,U,55976,999,18106,.23315684E-3,.1202E-3,0 FENGYUN 3G,2023-055A,2026-06-18T14:04:49.639296,15.52683224,.00070304,49.9937,338.8093,302.3922,57.6364,0,U,56232,999,18022,.30569922E-3,.18824E-3,0 METEOR-M2 3,2023-091A,2026-06-18T15:27:42.519168,14.24047010,.00044232,98.6090,224.5928,151.7298,208.4122,0,U,57166,999,15472,.30908865E-4,.28E-6,0 TIANMU-1 07,2023-101A,2026-06-18T14:30:33.931296,15.29821124,.00041553,97.2587,220.2404,118.6454,241.5205,0,U,57399,999,16186,.1716245E-3,.4883E-4,0 TIANMU-1 08,2023-101B,2026-06-18T13:42:31.451040,15.29825797,.00056343,97.2576,219.9783,111.8495,248.3346,0,U,57400,999,16185,.17466926E-3,.4973E-4,0 TIANMU-1 09,2023-101C,2026-06-18T14:52:47.307936,15.29857596,.00046592,97.2533,219.4410,123.4443,236.7244,0,U,57401,999,16186,.17595354E-3,.5014E-4,0 TIANMU-1 10,2023-101D,2026-06-18T14:06:13.850784,15.29829016,.00062302,97.2613,220.4613,122.6643,237.5200,0,U,57402,999,16185,.17925892E-3,.5106E-4,0 FENGYUN 3F,2023-111A,2026-06-18T14:16:41.090592,14.19939369,.00015878,98.6836,239.5774,92.4919,267.6440,0,U,57490,999,14906,.43212512E-4,.48E-6,0 ARKTIKA-M 2,2023-198A,2026-06-17T18:13:15.259296,2.00612717,.69023443,63.2243,154.2920,267.4286,18.7609,0,U,58584,999,1833,0,.145E-5,0 TIANMU-1 11,2023-205A,2026-06-18T15:01:45.649056,15.27008025,.00087764,97.3443,191.1605,12.4102,347.7352,0,U,58645,999,13774,.16608343E-3,.4333E-4,0 TIANMU-1 12,2023-205B,2026-06-18T14:19:08.103648,15.26972789,.00065547,97.3431,190.8868,358.6819,1.4402,0,U,58646,999,13772,.17443029E-3,.4547E-4,0 TIANMU-1 13,2023-205C,2026-06-18T15:05:40.229376,15.26826280,.00057305,97.3460,191.1914,335.8013,24.2956,0,U,58647,999,13772,.16928274E-3,.4391E-4,0 TIANMU-1 14,2023-205D,2026-06-18T14:44:18.432672,15.26870894,.00066779,97.3395,190.3575,340.0627,20.0350,0,U,58648,999,13772,.17366699E-3,.4513E-4,0 TIANMU-1 19,2023-208A,2026-06-18T14:14:51.218304,15.31591036,.00037294,97.4510,285.9004,321.9176,38.1801,0,U,58660,999,13754,.21235027E-3,.64E-4,0 TIANMU-1 20,2023-208B,2026-06-18T13:33:41.920992,15.32781178,.00059039,97.4452,286.5084,328.1882,31.9002,0,U,58661,999,13763,.20073967E-3,.6278E-4,0 TIANMU-1 21,2023-208C,2026-06-18T13:13:55.522848,15.35096288,.00058642,97.4512,289.1810,318.0096,42.0697,0,U,58662,999,13777,.22070136E-3,.7438E-4,0 TIANMU-1 22,2023-208D,2026-06-18T13:49:19.673760,15.31073695,.00030549,97.4506,285.8175,358.7867,1.3366,0,U,58663,999,13754,.19703405E-3,.5837E-4,0 TIANMU-1 15,2024-004A,2026-06-18T14:32:20.332896,15.27035319,.00065598,97.4669,355.7959,357.4669,2.6536,0,U,58700,999,13599,.17023115E-3,.4443E-4,0 TIANMU-1 16,2024-004B,2026-06-18T14:17:12.479712,15.26760188,.00056892,97.4615,355.0207,3.1420,356.9853,0,U,58701,999,13599,.17309135E-3,.448E-4,0 TIANMU-1 17,2024-004C,2026-06-18T13:56:15.719136,15.26759317,.00053835,97.4643,355.4916,9.6863,350.4479,0,U,58702,999,13598,.17057459E-3,.4414E-4,0 TIANMU-1 18,2024-004D,2026-06-18T14:56:17.295360,15.27017014,.00038915,97.4661,355.7897,10.7060,349.4261,0,U,58703,999,13599,.16353889E-3,.4261E-4,0 INSAT-3DS,2024-033A,2026-06-18T09:53:27.370176,1.00271262,.00010553,0.0448,107.3413,329.1695,60.6037,0,U,58990,999,4708,0,-.162E-5,0 METEOR-M2 4,2024-039A,2026-06-18T14:09:59.690016,14.22429656,.00073706,98.7011,128.8707,157.0729,203.0779,0,U,59051,999,11946,.22546591E-4,.6E-7,0 GOES 19,2024-119A,2026-06-18T14:16:29.773056,1.00270829,.00003529,0.0409,169.8991,4.4442,231.4208,0,U,60133,999,697,0,-.254E-5,0 MTG-S1,2025-143A,2026-06-17T23:13:03.747936,1.00270537,.00007875,0.6022,339.1600,17.8158,254.0253,0,U,64723,999,342,0,-.37E-6,0 METOP-SGA1,2025-172A,2026-06-16T03:40:47.624736,14.21509720,.0000902,98.6644,226.8998,93.8213,266.3067,0,U,65159,999,4364,.41999845E-4,.49E-6,0 FENGYUN 3H,2025-219A,2026-06-18T14:11:29.496768,14.19920628,.00015987,98.6768,110.3332,76.1674,283.9681,0,U,65815,999,3758,.39168498E-4,.4E-6,0